Notices

What's New in latest Release from April 7th, 2021:

- Updated Glossary, including Speed of Maximum Gust, and Total Hourly Precipitation

- Updated national and regional climate services offices contacts and prices information

- Addition of station inventory lists for 1981-2010, 1971-2000, and 1961-1990 Normals.

If you haven't already, please take our survey and provide feedback about our website: https://eccc.sondage-survey.ca/f/LanguageSelection.aspx?s=442ca660-fcf1-47c0-95a9-59707d6fd709

Hourly Data Report for May 05, 2003

TORONTO CITY
ONTARIO

43°40'00.000" N
79°24'00.000" W
112.50 m
6158355
71508
XTO

Download Data

Hourly Data (May 2003)
Hourly Data Report for May 5, 2003
TIME
LST
Temp Definition
°C
Dew Point Definition
°C
Rel Hum Definition
%
Precip. Amount Definition
mm

Wind Dir Definition
10's deg

Wind Spd Definition
km/h
Visibility Definition
km
Stn Press Definition
kPa
Hmdx Definition


Wind Chill Definition


Weather Definition


00:00 11.0 -4.0 35   LegendMM LegendMM LegendMM 100.37     LegendNANA
01:00 11.4 -3.0 36   LegendMM LegendMM LegendMM 100.20     LegendNANA
02:00 11.4 -1.9 39   LegendMM LegendMM LegendMM 100.21     LegendNANA
03:00 10.8 -0.9 44   LegendMM LegendMM LegendMM 100.27     LegendNANA
04:00 10.3 -0.8 46   LegendMM LegendMM LegendMM 100.25     LegendNANA
05:00 9.4 0.5 54   LegendMM LegendMM LegendMM 100.24     LegendNANA
06:00 9.4 1.2 57   LegendMM LegendMM LegendMM 100.17     LegendNANA
07:00 10.0 2.3 59   LegendMM LegendMM LegendMM 100.13     LegendNANA
08:00 10.3 2.8 60   LegendMM LegendMM LegendMM 100.08     LegendNANA
09:00 10.4 3.5 62   LegendMM LegendMM LegendMM 99.96     LegendNANA
10:00 10.9 3.9 62   LegendMM LegendMM LegendMM 99.89     LegendNANA
11:00 11.6 3.6 58   LegendMM LegendMM LegendMM 99.78     LegendNANA
12:00 11.4 3.4 58   LegendMM LegendMM LegendMM 99.68     LegendNANA
13:00 9.9 4.1 67   LegendMM LegendMM LegendMM 99.68     LegendNANA
14:00 8.7 6.9 88   LegendMM LegendMM LegendMM 99.68     LegendNANA
15:00 8.5 7.7 95   LegendMM LegendMM LegendMM 99.57     LegendNANA
16:00 7.5 7.0 97   LegendMM LegendMM LegendMM 99.51     LegendNANA
17:00 7.5 7.1 97   LegendMM LegendMM LegendMM 99.48     LegendNANA
18:00 6.9 6.6 98   LegendMM LegendMM LegendMM 99.49     LegendNANA
19:00 6.6 6.3 98   LegendMM LegendMM LegendMM 99.49     LegendNANA
20:00 6.5 6.2 98   LegendMM LegendMM LegendMM 99.46     LegendNANA
21:00 6.6 6.2 97   LegendMM LegendMM LegendMM 99.38     LegendNANA
22:00
23:00 6.6 6.0 96   LegendMM LegendMM LegendMM 99.44     LegendNANA

Notes on Data Quality.

Legend

  • E = Estimated
  • M = Missing
  • NA = Not Available*
  • [empty] = Indicates an unobserved value
Date modified: